Date,TemperatureHighF,TemperatureAvgF,TemperatureLowF,DewpointHighF,DewpointAvgF,DewpointLowF,HumidityHigh,HumidityAvg,HumidityLow,PressureMaxIn,PressureMinIn,WindSpeedMaxMPH,WindSpeedAvgMPH,GustSpeedMaxMPH,PrecipitationSumIn
2012-12-1,38,36,30,-100,-100,-100,0,0,100,0.00,40.00,7,3,16,0.00
2012-12-2,38,36,33,-100,-100,-100,0,0,100,0.00,40.00,5,1,12,0.00
2012-12-3,54,43,33,-100,-100,-100,0,0,100,0.00,40.00,10,4,22,0.10
2012-12-4,39,29,21,-100,-100,-100,0,0,100,0.00,40.00,12,4,25,0.02
2012-12-5,33,25,21,-100,-100,-100,0,0,100,0.00,40.00,8,3,16,0.00
2012-12-6,36,33,28,-100,-100,-100,0,0,100,0.00,40.00,12,5,21,0.04
2012-12-7,31,27,25,-100,-100,-100,0,0,100,0.00,40.00,3,1,7,0.01
2012-12-8,30,22,15,-100,-100,-100,0,0,100,0.00,40.00,2,0,8,0.00
2012-12-9,28,24,16,-100,-100,-100,0,0,100,0.00,40.00,6,2,12,0.03
2012-12-10,28,24,20,-100,-100,-100,0,0,100,0.00,40.00,3,1,10,0.03
2012-12-11,23,18,15,-100,-100,-100,0,0,100,0.00,40.00,9,4,20,0.00
2012-12-12,36,23,10,-100,-100,-100,0,0,100,0.00,40.00,12,3,21,0.00
2012-12-13,38,33,26,-100,-100,-100,0,0,100,0.00,40.00,10,3,20,0.00
2012-12-14,33,29,25,-100,-100,-100,0,0,100,0.00,40.00,8,2,14,0.00
2012-12-15,36,33,29,-100,-100,-100,0,0,100,0.00,40.00,9,4,18,0.11
2012-12-16,36,33,29,-100,-100,-100,0,0,100,0.00,40.00,5,1,12,0.08
2012-12-17,28,25,24,-100,-100,-100,0,0,100,0.00,40.00,5,1,10,0.01
2012-12-18,29,23,18,-100,-100,-100,0,0,100,0.00,40.00,3,0,6,0.00
2012-12-19,28,22,11,-100,-100,-100,0,0,100,0.00,40.00,3,1,9,0.00
2012-12-20,31,28,25,-100,-100,-100,0,0,100,0.00,40.00,10,4,24,0.11
2012-12-21,27,22,18,-100,-100,-100,0,0,100,0.00,40.00,12,3,21,0.04
2012-12-22,32,17,1,-100,-100,-100,0,0,100,0.00,40.00,8,1,14,0.01
2012-12-23,22,16,6,-100,-100,-100,0,0,100,0.00,40.00,7,1,14,0.00
2012-12-24,23,16,12,-100,-100,-100,0,0,100,0.00,40.00,2,0,8,0.00
2012-12-25,22,13,-1,-100,-100,-100,0,0,100,0.00,40.00,3,0,8,0.00
2012-12-26,24,15,-2,-100,-100,-100,0,0,100,0.00,40.00,5,1,8,0.00
2012-12-27,24,19,17,-100,-100,-100,0,0,100,0.00,40.00,6,2,14,0.00
2012-12-28,26,20,16,-100,-100,-100,0,0,100,0.00,40.00,3,1,8,0.00
2012-12-29,24,18,10,-100,-100,-100,0,0,100,0.00,40.00,2,0,8,0.01
2012-12-30,23,16,10,-100,-100,-100,0,0,100,0.00,40.00,9,3,12,0.01
2012-12-31,18,12,2,-100,-100,-100,0,0,100,0.00,40.00,5,2,14,0.00